SCP
1 1 1 0 0 0 0 0 0 0 0 0 0 0 0 0 0 0 0 0 0 0 0 1 1 1 1 1 1 1 1 1 1 1 1 1 1 1
1 1 1 1 0 0 0 0 0 0 0 0 0 0 0 0 0 0 0 0 0 0 0 0 0 0 0 1 1 1 1 1 1 1 1 1 1 1
2 2 1 1 1 1 1 1 0 0 0 0 0 0 0 0 0 0 0 0 0 0 0 0 0 0 0 0 1 1 0 0 0 0 1 1 1 1
2 2 2 2 2 1 1 1 1 1 0 0 0 0 0 0 0 0 0 0 0 0 0 0 0 0 0 0 0 0 0 0 0 0 0 1 1 1
2 2 2 2 2 2 1 1 1 1 0 0 0 0 0 0 0 0 0 0 0 0 0 0 0 0 0 0 0 0 0 0 0 0 0 0 0 0
2 2 2 2 2 2 2 1 1 1 0 0 0 0 0 0 0 0 0 0 0 0 0 0 0 0 0 0 0 0 0 0 0 0 0 0 0 0
1 2 2 2 2 2 1 1 1 0 0 0 0 0 0 0 0 0 0 0 0 1 1 1 0 0 0 0 0 0 0 0 0 0 0 0 0 0
1 1 1 1 1 1 1 0 0 0 0 0 0 0 0 0 0 0 0 0 0 1 1 1 0 0 0 0 0 0 0 0 0 0 0 0 0 0
1 1 1 0 0 0 0 0 0 0 0 0 0 0 0 0 0 0 0 0 0 1 1 1 0 0 0 0 0 0 0 0 0 0 0 0 0 0
1 1 1 1 0 0 0 0 0 0 0 0 0 0 0 0 0 0 0 0 0 0 0 0 0 0 0 0 0 0 0 0 0 0 0 0 0 0
1 1 1 1 0 0 0 0 0 0 0 0 0 0 0 0 0 0 0 0 0 0 0 0 0 0 0 0 0 0 0 0 0 0 0 0 0 0
1 1 1 0 0 0 0 0 0 0 0 0 0 0 0 0 0 0 0 0 0 0 0 0 0 0 0 0 0 0 0 0 0 0 0 0 0 0
1 1 1 0 0 0 0 0 0 0 0 0 0 0 0 0 0 0 0 0 0 0 0 0 0 0 0 0 0 0 0 0 0 0 0 0 0 0
1 1 0 0 0 0 0 0 0 0 0 0 0 0 0 0 0 0 0 0 0 0 0 0 0 0 0 0 0 0 0 0 0 0 0 0 0 0
1 1 0 0 0 0 0 0 0 0 0 0 0 0 0 0 0 0 0 0 0 0 0 0 0 0 0 0 0 0 1 1 1 1 0 0 0 0
0 0 0 0 0 0 0 0 0 0 0 0 0 0 0 0 0 0 0 0 0 0 0 0 0 0 0 0 0 1 1 1 1 1 0 0 0 0
0 0 0 0 0 0 0 0 0 0 0 0 0 0 0 0 0 0 0 0 0 0 0 0 0 0 0 0 0 1 1 1 1 1 0 0 0 0
0 0 0 0 0 0 0 0 0 0 0 0 0 0 0 0 0 0 0 0 0 0 0 0 0 0 0 0 0 1 1 1 0 0 0 0 0 0
0 0 0 0 0 0 0 0 0 0 0 0 0 0 0 0 0 0 0 0 0 0 0 0 0 0 0 0 0 0 0 0 0 0 0 0 0 0
0 0 0 0 0 0 0 0 0 0 0 0 0 0 0 0 0 0 0 0 0 0 0 0 0 0 0 0 0 0 0 0 0 0 0 0 0 0
0 0 0 0 0 0 0 0 0 0 0 0 0 0 0 0 0 0 0 0 0 0 0 0 0 0 0 0 0 0 0 0 0 0 0 0 0 0
0 0 0 0 0 0 0 0 0 0 0 0 0 0 0 0 0 0 0 0 0 0 0 0 0 0 0 0 0 0 0 0 0 0 0 0 0 0
0 0 0 0 0 0 0 0 0 0 0 0 0 0 0 0 0 0 0 0 0 0 0 0 0 0 0 0 0 0 0 0 0 0 0 0 0 0
Wind_Speed
3 3 3 3 2 3 3 3 3 4 5 4 3 4 3 4 6 5 6 8 10 10 10 10 10 10 10 11 11 11 11 12 12 13 13 14 15 15
2 2 3 2 2 3 3 3 4 4 5 4 4 5 6 5 7 6 6 10 10 10 10 10 10 10 10 11 11 11 11 12 12 13 14 14 14 14
2 3 4 3 3 3 3 3 4 4 6 6 4 5 5 6 6 6 6 6 6 10 11 11 11 11 11 11 11 11 11 11 12 13 13 14 14 14
3 3 4 3 3 3 3 4 4 4 5 7 5 4 5 6 6 7 6 6 6 9 10 11 11 11 11 11 11 11 11 11 11 11 12 13 13 13
3 4 4 3 4 3 4 4 4 4 4 5 6 4 4 4 5 6 6 5 6 7 8 9 9 10 10 11 11 11 11 11 11 11 11 11 11 12
3 3 4 4 4 4 4 4 4 4 4 4 5 5 4 4 4 5 6 5 5 6 6 6 7 8 9 10 11 11 11 11 11 11 11 11 11 11
3 3 3 4 5 4 3 4 3 4 4 4 5 4 5 4 5 4 6 6 6 4 5 4 4 4 5 7 9 10 10 10 10 10 10 10 11 11
3 4 4 3 4 5 6 6 5 4 4 4 4 5 6 5 5 5 5 5 5 3 4 5 4 5 5 5 7 9 9 10 10 10 10 10 10 10
3 3 3 3 4 4 5 6 5 5 6 5 5 6 6 5 5 6 5 5 6 4 3 6 4 5 5 5 8 8 8 9 9 9 9 9 10 10
3 3 3 4 4 4 4 4 5 5 4 3 4 6 6 5 5 5 5 6 6 5 4 5 5 5 5 5 6 8 8 8 8 8 8 8 9 9
3 3 3 4 5 5 3 4 5 5 5 5 6 6 7 7 5 3 3 3 5 5 2 3 4 5 5 5 5 6 7 7 7 7 7 7 7 7
3 3 4 4 6 5 2 2 4 5 6 6 5 6 5 5 4 3 3 3 4 4 2 3 3 3 4 3 3 3 3 5 6 6 6 6 6 4
3 3 4 6 6 5 3 2 4 5 5 5 5 5 4 4 4 3 3 3 4 5 4 3 3 3 4 4 4 3 3 3 3 3 5 7 7 6
2 3 4 6 6 5 3 4 5 4 3 4 4 4 5 5 5 5 5 4 5 6 6 4 3 3 4 4 4 3 3 3 3 3 3 4 5 6
2 4 5 6 5 4 4 5 4 3 3 3 4 4 4 5 5 5 4 4 5 5 4 4 4 4 3 4 4 4 4 3 3 3 2 2 2 3
3 4 5 4 4 4 5 4 3 3 3 3 4 4 5 5 4 4 4 4 4 4 4 3 3 3 3 4 4 4 4 3 3 2 2 1 2 2
2 2 3 3 4 4 4 4 4 4 4 4 4 4 5 5 5 5 4 4 3 4 5 5 4 3 3 4 4 4 4 4 3 2 1 1 2 2
1 2 3 3 4 4 4 4 4 4 4 4 4 4 5 5 5 5 4 4 4 4 5 5 4 4 3 2 2 4 4 4 4 3 1 1 1 1
2 2 2 3 3 4 4 4 4 4 4 4 4 4 5 5 5 5 5 4 4 5 5 4 4 3 4 5 4 3 4 4 4 3 2 2 2 2
2 2 3 3 3 3 4 4 4 4 4 4 4 4 4 4 5 5 5 5 5 5 5 4 4 4 3 4 4 5 5 4 3 3 2 2 2 2
2 2 3 3 3 3 3 4 4 4 4 4 4 5 5 4 5 5 5 6 5 4 5 5 5 6 4 2 2 3 4 4 4 2 2 2 2 1
2 3 3 3 3 3 3 3 4 4 5 4 5 5 4 4 5 5 5 5 4 4 4 4 5 4 3 2 3 4 4 5 5 5 5 3 2 1
2 2 3 3 3 3 3 4 4 4 4 4 5 5 5 5 5 4 5 5 4 4 4 4 4 3 3 3 3 3 5 5 4 4 5 6 4 3
Wind_Direction
238 234 236 241 229 225 218 210 228 277 286 278 281 286 292 288 284 285 280 280 278 272 267 262 258 255 254 253 248 246 247 246 245 244 245 247 248 249
240 244 249 246 242 232 226 226 221 236 266 270 268 284 294 291 291 286 279 281 278 273 268 263 257 254 252 252 249 247 246 244 243 244 245 246 246 246
260 251 261 252 246 244 236 233 231 225 255 275 271 285 282 289 298 294 284 276 275 271 268 264 259 254 252 252 249 246 245 243 242 243 244 243 244 243
265 262 267 263 259 256 246 248 245 231 239 271 282 284 279 289 291 292 291 285 279 275 269 266 260 255 253 252 249 246 243 242 242 242 243 242 240 240
270 268 268 262 269 267 259 258 261 259 243 256 276 279 280 292 300 296 292 285 285 283 275 268 264 260 255 250 248 246 243 240 239 239 241 241 239 237
286 274 267 257 259 269 272 269 273 277 271 267 274 280 281 292 295 297 302 297 294 294 285 278 269 263 260 255 248 245 241 238 235 234 234 234 234 232
303 291 279 277 276 273 274 275 276 276 279 276 277 284 288 296 299 295 296 302 292 279 285 283 277 272 269 262 251 244 242 238 235 233 231 230 228 226
305 311 312 312 312 305 295 283 268 264 270 269 272 278 282 286 291 295 299 304 299 286 282 285 275 271 269 263 255 245 241 239 237 235 233 230 227 223
298 304 315 322 325 319 317 316 306 287 258 251 266 273 278 286 292 294 292 289 284 291 283 283 279 276 277 269 253 247 243 242 241 240 236 230 226 223
306 304 308 313 319 324 316 317 317 310 291 273 264 275 281 283 273 275 282 289 286 279 259 275 283 279 282 277 256 246 246 246 245 241 236 231 225 221
326 327 318 315 319 332 332 326 324 319 315 312 300 295 294 293 289 290 296 299 303 304 283 274 289 296 288 277 269 253 252 252 252 245 236 229 223 217
328 332 337 333 323 330 330 319 317 314 322 326 324 321 318 315 297 271 274 285 298 296 289 287 292 305 293 283 285 283 274 262 256 250 239 223 212 211
322 328 330 335 333 332 333 308 297 304 313 320 322 325 328 325 319 302 274 259 274 281 294 290 285 287 278 291 298 291 285 280 270 257 237 225 211 203
302 311 316 330 335 336 333 319 317 325 330 333 331 329 327 323 316 310 296 276 264 270 282 282 277 281 284 288 292 296 293 285 271 267 255 228 218 214
298 310 322 334 338 338 333 334 342 349 340 332 326 320 315 312 314 315 313 303 295 288 288 283 282 278 273 278 289 292 295 291 276 268 251 233 223 214
348 343 346 352 357 346 345 349 351 340 331 323 318 318 324 328 330 330 324 326 323 322 325 320 305 295 288 285 284 291 292 287 287 279 256 237 224 218
343 354 3 1 1 356 352 351 349 349 341 335 330 328 330 332 334 335 331 332 325 323 328 333 331 313 284 282 293 296 297 294 293 299 275 251 236 227
34 10 358 351 345 343 343 344 345 344 336 329 328 327 328 330 331 334 335 332 328 326 325 328 332 332 332 321 298 309 315 313 310 300 283 261 260 245
43 4 348 339 335 337 337 337 336 337 334 332 329 326 326 329 332 335 337 335 329 328 327 328 333 333 331 330 332 337 321 318 317 311 305 286 275 276
3 340 329 326 329 331 332 332 332 337 341 338 336 333 331 331 332 333 334 334 330 329 330 336 340 335 321 313 313 323 329 321 317 317 320 306 294 302
329 326 322 320 323 327 330 331 333 334 339 338 336 335 334 333 329 329 329 330 328 329 332 333 328 320 308 300 310 327 342 351 350 324 318 310 320 336
311 314 317 318 321 326 328 329 333 335 337 337 333 331 329 328 326 326 326 328 326 323 325 327 332 338 346 341 333 333 340 352 8 23 23 2 331 333
305 307 310 316 321 325 328 331 332 332 333 332 330 330 329 327 323 321 324 326 327 329 331 334 341 346 345 337 333 338 346 350 355 11 21 23 37 36